TimeMDT,TemperatureF,Dew PointF,Humidity,Sea Level PressureIn,VisibilityMPH,Wind Direction,Wind SpeedMPH,Gust SpeedMPH,PrecipitationIn,Events,Conditions,WindDirDegrees,DateUTC
12:53 AM,35.1,28.0,76,30.21,10.0,North,4.6,-,N/A,,Clear,350,2013-10-07 06:53:00
1:53 AM,34.0,28.0,79,30.19,10.0,North,5.8,-,N/A,,Clear,350,2013-10-07 07:53:00
2:53 AM,30.9,26.1,82,30.18,10.0,North,3.5,-,N/A,,Clear,350,2013-10-07 08:53:00
3:53 AM,30.9,26.1,82,30.16,10.0,North,3.5,-,N/A,,Clear,360,2013-10-07 09:53:00
4:53 AM,28.9,25.0,85,30.14,10.0,North,3.5,-,N/A,,Clear,350,2013-10-07 10:53:00
5:53 AM,32.0,26.1,79,30.12,10.0,North,3.5,-,N/A,,Clear,360,2013-10-07 11:53:00
6:53 AM,32.0,26.1,79,30.11,10.0,NNW,3.5,-,N/A,,Clear,340,2013-10-07 12:53:00
7:53 AM,30.9,26.1,82,30.13,10.0,North,5.8,-,N/A,,Mostly Cloudy,360,2013-10-07 13:53:00
8:53 AM,36.0,30.0,79,30.13,10.0,NNW,4.6,-,N/A,,Mostly Cloudy,340,2013-10-07 14:53:00
9:53 AM,43.0,32.0,65,30.12,10.0,NNE,3.5,-,N/A,,Scattered Clouds,20,2013-10-07 15:53:00
10:53 AM,52.0,33.1,49,30.08,10.0,Calm,Calm,-,N/A,,Clear,0,2013-10-07 16:53:00
11:53 AM,59.0,30.9,35,30.04,10.0,SW,4.6,-,N/A,,Scattered Clouds,230,2013-10-07 17:53:00
12:53 PM,62.1,30.9,31,30.01,10.0,SW,4.6,-,N/A,,Scattered Clouds,220,2013-10-07 18:53:00
1:53 PM,66.0,34.0,30,29.96,10.0,SSW,8.1,-,N/A,,Mostly Cloudy,200,2013-10-07 19:53:00
2:53 PM,71.1,28.9,21,29.92,10.0,SW,15.0,20.7,N/A,,Mostly Cloudy,230,2013-10-07 20:53:00
3:53 PM,71.1,28.0,20,29.90,10.0,WSW,16.1,23.0,N/A,,Scattered Clouds,240,2013-10-07 21:53:00
4:53 PM,68.0,28.9,23,29.89,10.0,SW,12.7,-,N/A,,Scattered Clouds,220,2013-10-07 22:53:00
5:53 PM,66.9,19.9,17,29.88,10.0,WSW,12.7,-,N/A,,Scattered Clouds,240,2013-10-07 23:53:00
6:53 PM,61.0,21.9,22,29.88,10.0,SW,6.9,-,N/A,,Partly Cloudy,220,2013-10-08 00:53:00
7:53 PM,60.1,27.0,28,29.89,10.0,South,8.1,-,N/A,,Clear,180,2013-10-08 01:53:00
8:53 PM,60.1,21.0,22,29.87,10.0,South,11.5,-,N/A,,Clear,190,2013-10-08 02:53:00
9:53 PM,55.0,25.0,31,29.87,10.0,South,5.8,-,N/A,,Clear,170,2013-10-08 03:53:00
10:53 PM,48.0,28.9,48,29.85,10.0,Calm,Calm,-,N/A,,Clear,0,2013-10-08 04:53:00
11:53 PM,46.9,28.0,48,29.83,10.0,Calm,Calm,-,N/A,,Clear,0,2013-10-08 05:53:00